• In Deutschland
  • Länderverzeichnis
  • Für 7 Tage
  • Wassertemperatur
  • Satellitenkarten
  • Wetterkarte
  • Widgets
  • user-avatar
    Anmelden

    Stündliche Wetter Oran

    Heute, 23 Mai, Mittwoch

    Zeit Temperatur Niederschläge Wind Luftdruck Luftfeuchtigkeit
    00:00 +21°C° 0 mm 2 m/S 751 mmHg 53%
    01:00 +21°C° 0 mm 2 m/S 751 mmHg 54%
    02:00 +21°C° 0 mm 2 m/S 751 mmHg 55%
    03:00 +21°C° 0 mm 2 m/S 751 mmHg 56%
    04:00 +21°C° 0 mm 2 m/S 751 mmHg 54%
    05:00 +22°C° 0 mm 3 m/S 751 mmHg 53%
    06:00 +22°C° 0 mm 3 m/S 751 mmHg 51%
    07:00 +25°C° 0 mm 3 m/S 751 mmHg 45%
    08:00 +27°C° 0 mm 4 m/S 751 mmHg 38%
    09:00 +29°C° 0 mm 4 m/S 751 mmHg 31%
    10:00 +32°C° 0 mm 4 m/S 751 mmHg 28%
    11:00 +33°C° 0 mm 5 m/S 751 mmHg 26%
    12:00 +35°C° 0 mm 6 m/S 750 mmHg 23%
    13:00 +35°C° 0 mm 6 m/S 750 mmHg 23%
    14:00 +35°C° 0 mm 7 m/S 749 mmHg 23%
    15:00 +37°C° 0 mm 8 m/S 749 mmHg 23%
    16:00 +35°C° 0 mm 8 m/S 749 mmHg 26%
    17:00 +34°C° 0 mm 7 m/S 748 mmHg 28%
    18:00 +33°C° 0 mm 7 m/S 748 mmHg 30%
    19:00 +32°C° 0 mm 6 m/S 748 mmHg 33%
    20:00 +30°C° 0 mm 6 m/S 748 mmHg 36%
    21:00 +29°C° 0 mm 5 m/S 748 mmHg 39%
    22:00 +28°C° 0 mm 5 m/S 748 mmHg 43%
    23:00 +27°C° 0 mm 5 m/S 748 mmHg 47%

    Morgen, 24 Mai, Donnerstag

    Zeit Temperatur Niederschläge Wind Luftdruck Luftfeuchtigkeit
    00:00 +26°C° 0 mm 6 m/S 748 mmHg 51%
    01:00 +25°C° 0 mm 5 m/S 748 mmHg 56%
    02:00 +23°C° 0 mm 4 m/S 747 mmHg 62%
    03:00 +22°C° 0 mm 4 m/S 747 mmHg 67%
    04:00 +22°C° 0 mm 4 m/S 747 mmHg 68%
    05:00 +22°C° 0 mm 3 m/S 747 mmHg 68%
    06:00 +22°C° 0 mm 3 m/S 747 mmHg 68%
    07:00 +26°C° 0 mm 4 m/S 748 mmHg 59%
    08:00 +28°C° 0 mm 5 m/S 748 mmHg 50%
    09:00 +30°C° 0 mm 6 m/S 748 mmHg 42%
    10:00 +30°C° 0 mm 6 m/S 748 mmHg 42%
    11:00 +32°C° 0 mm 6 m/S 748 mmHg 43%
    12:00 +32°C° 0 mm 6 m/S 747 mmHg 43%
    13:00 +30°C° 0 mm 6 m/S 747 mmHg 48%
    14:00 +29°C° 0 mm 6 m/S 747 mmHg 53%
    15:00 +28°C° 0 mm 6 m/S 746 mmHg 57%
    16:00 +26°C° 0 mm 6 m/S 746 mmHg 61%
    17:00 +24°C° 0 mm 6 m/S 747 mmHg 64%
    18:00 +23°C° 0 mm 7 m/S 747 mmHg 67%
    19:00 +22°C° 0 mm 7 m/S 747 mmHg 70%
    20:00 +22°C° 0 mm 6 m/S 748 mmHg 72%
    21:00 +21°C° 0 mm 6 m/S 749 mmHg 74%
    22:00 +21°C° 0 mm 6 m/S 749 mmHg 75%
    23:00 +20°C° 0 mm 5 m/S 749 mmHg 76%

    übermorgen, 25 Mai, Freitag

    Zeit Temperatur Niederschläge Wind Luftdruck Luftfeuchtigkeit
    00:00 +20°C° 0 mm 5 m/S 749 mmHg 77%
    01:00 +20°C° 0 mm 5 m/S 749 mmHg 77%
    02:00 +19°C° 0 mm 5 m/S 749 mmHg 77%
    03:00 +19°C° 0 mm 4 m/S 749 mmHg 77%
    04:00 +19°C° 0 mm 4 m/S 749 mmHg 74%
    05:00 +19°C° 0 mm 5 m/S 749 mmHg 72%
    06:00 +20°C° 0 mm 5 m/S 749 mmHg 70%
    07:00 +21°C° 0 mm 5 m/S 749 mmHg 61%
    08:00 +22°C° 0 mm 5 m/S 749 mmHg 53%
    09:00 +25°C° 0 mm 5 m/S 750 mmHg 45%
    10:00 +26°C° 0 mm 5 m/S 749 mmHg 41%
    11:00 +27°C° 0 mm 6 m/S 749 mmHg 37%
    12:00 +28°C° 0 mm 6 m/S 749 mmHg 34%
    13:00 +28°C° 0 mm 6 m/S 749 mmHg 33%
    14:00 +28°C° 0 mm 6 m/S 748 mmHg 32%
    15:00 +28°C° 0 mm 6 m/S 748 mmHg 32%
    16:00 +27°C° 0 mm 5 m/S 748 mmHg 35%
    17:00 +26°C° 0 mm 5 m/S 748 mmHg 39%
    18:00 +25°C° 0 mm 4 m/S 748 mmHg 43%
    19:00 +23°C° 0 mm 4 m/S 748 mmHg 46%
    20:00 +22°C° 0 mm 3 m/S 749 mmHg 49%
    21:00 +23°C° 0 mm 2 m/S 749 mmHg 53%
    22:00 +21°C° 0 mm 2 m/S 749 mmHg 54%
    23:00 +21°C° 0 mm 2 m/S 749 mmHg 55%

    26 Mai, Samstag

    Zeit Temperatur Niederschläge Wind Luftdruck Luftfeuchtigkeit
    00:00 +21°C° 0 mm 3 m/S 749 mmHg 56%
    01:00 +20°C° 0 mm 2 m/S 749 mmHg 57%
    02:00 +20°C° 0 mm 2 m/S 748 mmHg 59%
    03:00 +19°C° 0 mm 2 m/S 748 mmHg 60%
    04:00 +20°C° 0 mm 2 m/S 748 mmHg 60%
    05:00 +20°C° 0 mm 2 m/S 748 mmHg 60%
    06:00 +20°C° 0 mm 2 m/S 748 mmHg 60%
    07:00 +23°C° 0 mm 2 m/S 748 mmHg 55%
    08:00 +24°C° 0 mm 3 m/S 749 mmHg 51%
    09:00 +25°C° 0 mm 3 m/S 749 mmHg 46%
    10:00 +26°C° 0 mm 3 m/S 749 mmHg 44%
    11:00 +27°C° 0 mm 4 m/S 749 mmHg 41%
    12:00 +29°C° 0 mm 4 m/S 749 mmHg 39%
    13:00 +28°C° 0 mm 4 m/S 748 mmHg 40%
    14:00 +28°C° 0 mm 5 m/S 748 mmHg 40%
    15:00 +28°C° 0 mm 5 m/S 748 mmHg 41%
    16:00 +27°C° 0 mm 4 m/S 748 mmHg 43%
    17:00 +27°C° 0 mm 3 m/S 748 mmHg 44%
    18:00 +26°C° 0 mm 3 m/S 748 mmHg 46%
    19:00 +25°C° 0 mm 2 m/S 748 mmHg 50%
    20:00 +24°C° 0 mm 2 m/S 749 mmHg 53%
    21:00 +23°C° 0 mm 1 m/S 750 mmHg 57%
    22:00 +23°C° 0,2 mm 1 m/S 750 mmHg 60%
    23:00 +23°C° 0,2 mm 1 m/S 750 mmHg 62%

    27 Mai, Sonntag

    Zeit Temperatur Niederschläge Wind Luftdruck Luftfeuchtigkeit
    00:00 +22°C° 0,2 mm 1 m/S 750 mmHg 64%
    01:00 +22°C° 0 mm 1 m/S 749 mmHg 66%
    02:00 +21°C° 0 mm 2 m/S 749 mmHg 67%
    03:00 +20°C° 0 mm 2 m/S 748 mmHg 69%
    04:00 +20°C° 0 mm 2 m/S 748 mmHg 70%
    05:00 +20°C° 0 mm 2 m/S 748 mmHg 72%
    06:00 +21°C° 0 mm 1 m/S 749 mmHg 73%
    07:00 +21°C° 0,3 mm 2 m/S 749 mmHg 68%
    08:00 +23°C° 0,3 mm 2 m/S 749 mmHg 63%
    09:00 +24°C° 0,3 mm 3 m/S 749 mmHg 58%
    10:00 +25°C° 0,6 mm 4 m/S 749 mmHg 57%
    11:00 +25°C° 0,6 mm 5 m/S 749 mmHg 57%
    12:00 +26°C° 0,6 mm 6 m/S 749 mmHg 56%
    13:00 +26°C° 0,3 mm 6 m/S 749 mmHg 55%
    14:00 +26°C° 0,3 mm 6 m/S 749 mmHg 54%
    15:00 +26°C° 0,3 mm 6 m/S 749 mmHg 54%
    16:00 +25°C° 0 mm 5 m/S 749 mmHg 54%
    17:00 +25°C° 0 mm 5 m/S 749 mmHg 55%
    18:00 +23°C° 0 mm 5 m/S 749 mmHg 55%
    19:00 +22°C° 0 mm 4 m/S 750 mmHg 58%
    20:00 +22°C° 0 mm 4 m/S 750 mmHg 60%
    21:00 +21°C° 0 mm 4 m/S 751 mmHg 63%
    22:00 +21°C° 0 mm 4 m/S 751 mmHg 62%
    23:00 +21°C° 0 mm 4 m/S 751 mmHg 61%

    28 Mai, Montag

    Zeit Temperatur Niederschläge Wind Luftdruck Luftfeuchtigkeit
    00:00 +20°C° 0 mm 4 m/S 751 mmHg 61%
    01:00 +20°C° 0 mm 4 m/S 750 mmHg 60%
    02:00 +20°C° 0 mm 4 m/S 750 mmHg 60%
    03:00 +20°C° 0 mm 4 m/S 750 mmHg 59%
    04:00 +20°C° 0 mm 5 m/S 750 mmHg 60%
    05:00 +20°C° 0 mm 5 m/S 750 mmHg 61%
    06:00 +20°C° 0 mm 5 m/S 750 mmHg 62%
    07:00 +21°C° 0 mm 6 m/S 750 mmHg 58%
    08:00 +22°C° 0 mm 6 m/S 750 mmHg 53%
    09:00 +23°C° 0 mm 7 m/S 750 mmHg 48%
    10:00 +24°C° 0 mm 7 m/S 750 mmHg 46%
    11:00 +26°C° 0 mm 7 m/S 750 mmHg 43%
    12:00 +27°C° 0 mm 7 m/S 750 mmHg 40%
    13:00 +27°C° 0 mm 7 m/S 750 mmHg 40%
    14:00 +27°C° 0 mm 7 m/S 750 mmHg 39%
    15:00 +27°C° 0 mm 7 m/S 749 mmHg 39%
    16:00 +26°C° 0 mm 6 m/S 749 mmHg 41%
    17:00 +24°C° 0 mm 6 m/S 749 mmHg 43%
    18:00 +25°C° 0 mm 5 m/S 749 mmHg 44%
    19:00 +23°C° 0 mm 5 m/S 750 mmHg 47%
    20:00 +22°C° 0 mm 4 m/S 750 mmHg 50%
    21:00 +21°C° 0 mm 3 m/S 750 mmHg 53%
    22:00 +21°C° 0 mm 3 m/S 750 mmHg 54%
    23:00 +21°C° 0 mm 3 m/S 750 mmHg 55%
    Mehr zeigen